Regional Weather Roundup
Issued by NWS

Home | Current Version | Previous Version | Graphics & Text | Print | Product List | Glossary On
Versions: 1 2 3 4 5 6 7 8 9 10 11 12 13 14 15 16 17 18 19 20 21 22 23 24 25 26 27 28 29 30 31 32 33 34 35 36 37 38 39 40 41 42 43 44 45 46 47 48 49 50
000
ASUS43 KLSX 210407
RWRMO

WEATHER SUMMARY FOR MISSOURI
NATIONAL WEATHER SERVICE SPRINGFIELD MO
1100 PM CDT SUN APR 20 2014

NOTE: "FAIR" INDICATES FEW OR NO CLOUDS BELOW 12,000 FEET WITH NO
       SIGNIFICANT WEATHER AND/OR OBSTRUCTIONS TO VISIBILITY.
       CURRENT SKY AND/OR WEATHER CONDITIONS ARE NOT AVAILABLE FOR
       CHILLICOTHE AND FARMINGTON.

MOZ001>031-035>038-043-044-053-054-210500-
...NORTHERN AND WESTERN MISSOURI...

CITY           SKY/WX    TMP DP  RH WIND       PRES   REMARKS
KANSAS CTY INT CLOUDY    64  55  72 S8        30.02S
KANSAS C DTWN  LGT RAIN  68  54  60 S9        30.01S
LEE`S SUMMIT   CLOUDY    67  53  61 S6        30.03F
ST JOSEPH      CLOUDY    65  55  70 S3        30.01S
CHILLICOTHE      N/A     70  52  52 S6        30.02F
KIRKSVILLE     CLOUDY    68  49  50 SW5       30.02S

$$
MOZ066>068-077>081-088>096-101>105-210500-
...SOUTHWEST MISSOURI...

CITY           SKY/WX    TMP DP  RH WIND       PRES   REMARKS
SPRINGFIELD    CLOUDY    62  51  67 S5        30.05F
JOPLIN         MOCLDY    64  51  62 SE6       30.04F

$$
MOZ032>034-039>042-045>050-055>058-069>072-210500-
...CENTRAL MISSOURI...

CITY           SKY/WX    TMP DP  RH WIND       PRES   REMARKS
COLUMBIA       CLOUDY    68  50  52 SW6       30.03S
JEFFERSON CITY MOCLDY    66  51  58 CALM      30.03R
ROLLA          MOCLDY    64  49  57 S7        30.04S
SEDALIA        CLOUDY    67  54  63 SW5       30.04S
WHITEMAN AFB   CLOUDY    65  51  62 S5        30.03F
OSAGE BEACH    CLOUDY    64  48  55 SE5       30.06S

$$
MOZ051-052-059>065-210500-
...EAST CENTRAL MISSOURI...

CITY           SKY/WX    TMP DP  RH WIND       PRES   REMARKS
ST LOUIS INTL  CLOUDY    73  43  33 S10       30.04F
SPIRIT OF STL  CLOUDY    72  41  32 S8        30.03S
ST CHARLES     CLOUDY    69  45  41 S9        30.02F

$$
MOZ072>076-082>087-097>100-106>115-210500-
...SOUTH CENTRAL AND SOUTHEAST MISSOURI...

CITY           SKY/WX    TMP DP  RH WIND       PRES   REMARKS
CAPE GIRARDEAU PTCLDY    60  50  69 SE5       30.08F
FARMINGTON     MOCLDY    64  45  48 S6        30.10F
POPLAR BLUFF   MOCLDY    63  52  67 CALM      30.07S
WEST PLAINS    MOCLDY    66  45  46 S7        30.09S

$$



USA.gov is the U.S. government's official web portal to all federal, state and local government web resources and services.